RYS84DR LGRP-EPRZ

Flight info

Callsign RYS84DR
Flight time N/A
Altitude 38000
Route VANES B34 GILOS UM601 ADESO UN133 ATFIR DCT LOMOS DCT KARIL DCT KENIN DCT ROBTU DCT LUXAR
Aircraft B738/M-SDFGIJ1LRWY/SB1

Departure

Time 2026-05-08 03:37
Airport Rhodes International Airport "Diagoras" (LGRP)

Arrival

Time N/A
Airport Rzeszów-Jasionka Airport (EPRZ)
Time Latitude Longitude Altitude Speed Heading
2026-05-08 02:54 36.40328 28.09033 31 ft 0 kts 291°
2026-05-08 03:32 36.40331 28.09026 31 ft 2 kts 304°
2026-05-08 03:32 36.40361 28.09011 31 ft 6 kts 351°
2026-05-08 03:33 36.40396 28.09059 31 ft 11 kts 71°
2026-05-08 03:33 36.40427 28.09167 31 ft 14 kts 69°
2026-05-08 03:33 36.40460 28.09277 31 ft 11 kts 70°
2026-05-08 03:33 36.40504 28.09332 31 ft 9 kts 354°
2026-05-08 03:34 36.40559 28.09334 31 ft 8 kts 43°
2026-05-08 03:34 36.40588 28.09412 31 ft 11 kts 70°
2026-05-08 03:34 36.40619 28.09524 31 ft 15 kts 71°
2026-05-08 03:34 36.40662 28.09664 31 ft 19 kts 69°
2026-05-08 03:35 36.40712 28.09833 31 ft 21 kts 70°
2026-05-08 03:35 36.40759 28.09998 31 ft 19 kts 71°
2026-05-08 03:35 36.40803 28.10155 31 ft 18 kts 70°
2026-05-08 03:35 36.40842 28.10290 31 ft 17 kts 70°
2026-05-08 03:36 36.40877 28.10407 31 ft 12 kts 63°
2026-05-08 03:36 36.40945 28.10427 31 ft 10 kts 340°
2026-05-08 03:36 36.41000 28.10379 31 ft 9 kts 307°
2026-05-08 03:36 36.41026 28.10299 31 ft 15 kts 259°
2026-05-08 03:37 36.40939 28.09993 31 ft 72 kts 250°
2026-05-08 03:37 36.40685 28.09124 32 ft 139 kts 250°
2026-05-08 03:37 36.40295 28.07793 221 ft 179 kts 250°
2026-05-08 03:37 36.39881 28.06386 1041 ft 180 kts 250°
2026-05-08 03:38 36.39434 28.04865 1637 ft 197 kts 251°
2026-05-08 03:38 36.38948 28.03200 2105 ft 218 kts 251°
2026-05-08 03:38 36.38430 28.01390 2791 ft 229 kts 252°
2026-05-08 03:38 36.37894 27.99493 3398 ft 246 kts 252°
2026-05-08 03:39 36.37305 27.97439 4032 ft 261 kts 252°
2026-05-08 03:39 36.36674 27.95269 4773 ft 272 kts 251°
2026-05-08 03:39 36.36156 27.93035 5658 ft 275 kts 266°
2026-05-08 03:39 36.36304 27.90696 6610 ft 273 kts 284°
2026-05-08 03:40 36.36737 27.88418 7473 ft 277 kts 286°
2026-05-08 03:40 36.37157 27.86109 8388 ft 279 kts 284°
2026-05-08 03:40 36.37513 27.83746 9249 ft 282 kts 282°
2026-05-08 03:40 36.37826 27.81344 10107 ft 285 kts 282°
2026-05-08 03:41 36.38125 27.78919 10787 ft 294 kts 282°
2026-05-08 03:41 36.38437 27.76365 11326 ft 308 kts 281°
2026-05-08 03:41 36.38765 27.73676 11852 ft 321 kts 281°
2026-05-08 03:41 36.39099 27.70934 12566 ft 328 kts 281°
2026-05-08 03:42 36.39440 27.68126 13435 ft 330 kts 281°
2026-05-08 03:42 36.39774 27.65364 14277 ft 331 kts 281°
2026-05-08 03:42 36.40117 27.62525 15035 ft 335 kts 281°
2026-05-08 03:42 36.40462 27.59677 15760 ft 339 kts 281°
2026-05-08 03:43 36.40813 27.56777 16493 ft 343 kts 281°
2026-05-08 03:43 36.41168 27.53826 17263 ft 345 kts 281°
2026-05-08 03:43 36.41522 27.50891 17957 ft 348 kts 281°
2026-05-08 03:43 36.41880 27.47913 18618 ft 352 kts 281°
2026-05-08 03:44 36.42238 27.44927 19344 ft 354 kts 281°
2026-05-08 03:44 36.42601 27.41888 20031 ft 356 kts 281°
2026-05-08 03:44 36.42959 27.38891 20730 ft 357 kts 281°
2026-05-08 03:44 36.43325 27.35817 21362 ft 359 kts 281°
2026-05-08 03:45 36.43691 27.32743 21918 ft 363 kts 280°
2026-05-08 03:45 36.44054 27.29678 22594 ft 364 kts 280°
2026-05-08 03:45 36.44426 27.26535 23179 ft 367 kts 280°
2026-05-08 03:45 36.44795 27.23410 23800 ft 368 kts 281°
2026-05-08 03:46 36.45165 27.20276 24437 ft 369 kts 281°
2026-05-08 03:46 36.45532 27.17152 24989 ft 371 kts 281°
2026-05-08 03:46 36.45902 27.13987 25648 ft 371 kts 281°
2026-05-08 03:46 36.46268 27.10841 26185 ft 373 kts 281°
2026-05-08 03:47 36.46641 27.07636 26666 ft 377 kts 281°
2026-05-08 03:47 36.47022 27.04398 27193 ft 379 kts 281°
2026-05-08 03:47 36.47409 27.01184 27680 ft 381 kts 282°
2026-05-08 03:47 36.47807 26.97937 28205 ft 383 kts 282°
2026-05-08 03:48 36.48207 26.94676 28736 ft 383 kts 282°
2026-05-08 03:48 36.48605 26.91417 29257 ft 384 kts 282°
2026-05-08 03:48 36.49006 26.88110 29663 ft 388 kts 282°
2026-05-08 03:48 36.49404 26.84783 30297 ft 386 kts 282°
2026-05-08 03:49 36.49796 26.81493 30614 ft 391 kts 282°
2026-05-08 03:49 36.50190 26.78165 31184 ft 390 kts 282°
2026-05-08 03:49 36.50581 26.74840 31686 ft 390 kts 282°
2026-05-08 03:49 36.50973 26.71509 32403 ft 384 kts 282°
2026-05-08 03:50 36.51348 26.68301 33243 ft 375 kts 282°
2026-05-08 03:50 36.51719 26.65118 33987 ft 369 kts 282°
2026-05-08 03:50 36.52117 26.62006 34426 ft 368 kts 284°
2026-05-08 03:50 36.52707 26.58944 34842 ft 367 kts 290°
2026-05-08 03:51 36.53620 26.55985 35308 ft 364 kts 297°
2026-05-08 03:51 36.54833 26.53270 35911 ft 360 kts 303°
2026-05-08 03:51 36.56325 26.50811 36440 ft 358 kts 310°
2026-05-08 03:51 36.58081 26.48626 36830 ft 360 kts 316°
2026-05-08 03:52 36.60106 26.46731 37227 ft 362 kts 323°
2026-05-08 03:52 36.62296 26.45214 37653 ft 364 kts 329°
2026-05-08 03:52 36.64612 26.43930 37935 ft 367 kts 332°
2026-05-08 03:52 36.66984 26.42709 38121 ft 369 kts 332°
2026-05-08 03:53 36.69344 26.41484 38114 ft 368 kts 332°
2026-05-08 03:53 36.74012 26.38947 38114 ft 365 kts 330°